Flag for Germany Weather past 2 weeks in Ingolstadt, Bavaria, Germany

Now
73 °F

Partly sunny.


Feels Like: 77 °F
Forecast: 51 / 64 °F
Wind: 20 mph from West

Location: Ingolstadt Airport

Current Time: Jul 28, 2015 at 4:08:06 PM

Latest Report: Jul 28, 2015 at 3:20 PM


Visibility: N/A

Pressure: 29.80 "Hg

Humidity: 38%

Dew point: 46 °F

Location of IngolstadtLocation

Historic Weather in Ingolstadt — Graph

°F

Ingolstadt temperature yesterday

Maximum temperature yesterday: 75 °F (at 5:20 PM)
Minimum temperature yesterday: 57 °F (at 2:20 AM)
Average temperature yesterday: 65 °F

Past Weeks' High & Low Weather Summary

 TemperatureHumidityPressure
High97 °F (Jul 22, 4:20 PM)94% (Jul 14, 1:20 AM)30.15 "Hg (Jul 14, 1:20 AM)
Low54 °F (Jul 26, 5:20 AM)20% (Jul 17, 4:20 PM)29.71 "Hg (Jul 25, 12:20 AM)
Average73 °F60%29.97 "Hg
* Reported Jul 13 2:20 PM — Jul 28 2:20 PM, Ingolstadt, Weather by CustomWeather, © 2015

Note: Actual official high and low records may vary slightly from our data, if they occured in-between our weather recording intervals... More about our weather records

Advertising

Ingolstadt weather history for previous 24 hours

 ConditionsComfort  
Time TempWeatherWind HumidityBarometerVisibility
2:20 PM
Tue, Jul 28
72 °FBroken clouds.22 mph41%29.83 "HgN/A
1:20 PM70 °FBroken clouds.18 mph46%29.83 "HgN/A
12:20 PM70 °FBroken clouds.21 mph43%29.83 "HgN/A
11:20 AM70 °FPartly sunny.15 mph46%29.83 "HgN/A
10:20 AM68 °FPartly sunny.15 mph53%29.83 "HgN/A
9:20 AM68 °FScattered clouds.12 mph56%29.83 "HgN/A
8:20 AM64 °FBroken clouds.5 mph64%29.83 "HgN/A
7:20 AM63 °FPartly sunny.5 mph68%29.83 "HgN/A
6:20 AM63 °FPassing clouds.7 mph64%29.80 "HgN/A
5:20 AM63 °FPassing clouds.7 mph64%29.80 "HgN/A
4:20 AM63 °FMild.6 mph64%29.80 "Hg3 mi
3:20 AM64 °FMild.6 mph60%29.80 "Hg3 mi
2:20 AM63 °FMild.6 mph59%29.83 "Hg3 mi
1:20 AM63 °FMild.7 mph59%29.83 "Hg3 mi
12:20 AM63 °FMild.5 mph59%29.83 "Hg3 mi
11:20 PM
Mon, Jul 27
63 °FMild.7 mph56%29.83 "Hg3 mi
10:20 PM63 °FMild.7 mph56%29.83 "Hg3 mi
9:20 PM64 °FMild.7 mph49%29.80 "Hg3 mi
8:20 PM70 °FMild.14 mph40%29.80 "Hg4 mi
7:20 PM72 °FMild.20 mph38%29.77 "Hg4 mi
6:20 PM73 °FScattered clouds.29 mph41%29.77 "HgN/A
5:20 PM75 °FPassing clouds.26 mph41%29.74 "HgN/A
4:20 PM68 °FScattered clouds.22 mph56%29.74 "HgN/A
Weather by CustomWeather, © 2015

See weather overviewHow to use our weather pages